Location: Ay?beleni
(36.6500°N, 30.3000°E)
Time: 04:16:44
(UTC+00:00)

deb Chang Zheng 4 - Pass Details

Date: 16 October 2021
Orbit: 595 x 616 km, 98.6° (Epoch: 08 December)

Event Time Altitude Azimuth Distance (km) Brightness Sun altitude
Rises 15:52:20 0° 163° (SSE) 2,819 6.8 -7.0°
Reaches altitude 10° 15:54:29 10° 162° (SSE) 1,921 6.0 -7.5°
Maximum altitude 15:58:39 79° 75° (ENE) 610 3.4 -8.3°
Drops below altitude 10° 16:02:51 10° 350° (N) 1,938 6.2 -9.1°
Sets 16:05:01 0° 349° (N) 2,846 7.1 -9.6°
